Regional Weather Roundup
Issued by NWS

Home | Current Version | Previous Version | Text Only | Print | Product List | Glossary Off
Versions: 1 2 3 4 5 6 7 8 9 10 11 12 13 14 15 16 17 18 19 20 21 22 23 24 25 26 27 28 29 30 31 32 33 34 35 36 37 38 39 40 41 42 43 44 45 46 47 48 49 50

000
ASUS43 KOAX 311410
RWRNE

WEATHER ROUNDUP FOR NEBRASKA
NATIONAL WEATHER SERVICE OMAHA NE
900 AM CDT FRI OCT 31 2014

NOTES: SATELLITE DATA IS BEING USED TO AUGMENT CLOUD COVER ABOVE
       12000 FEET.
       "FAIR" INDICATES FEW OR NO CLOUDS BELOW 12,000 FEET WITH NO
       SIGNIFICANT WEATHER AND/OR OBSTRUCTIONS TO VISIBILITY.

  * THESE STATIONS DO NOT REPORT WEATHER SUCH AS RAIN...SNOW OR FOG.

NEZ001>004-019>022-054>056-311500-
NEBRASKA PANHANDLE

CITY           SKY/WX    TMP DP  RH WIND       PRES   REMARKS
SCOTTSBLUFF    PTCLDY    29  28  96 E14       30.40R WCI  18
ALLIANCE       CLOUDY    29  28  96 S14       30.42S FOG     WCI  18
CHADRON        CLOUDY    32  29  88 S12       30.39F WCI  23
KIMBALL        FOG       29  29 100 S13       30.36S VSB 1/4 WCI  19
SIDNEY         CLOUDY    30  29  96 S12       30.42R FOG     WCI  20
$$

NEZ057>060-069>072-079>082-311500-
SOUTHWEST NEBRASKA

CITY           SKY/WX    TMP DP  RH WIND       PRES   REMARKS
NORTH PLATTE   CLOUDY    30  24  78 E6        30.52R WCI  24
IMPERIAL       FOG       28  26  92 E7        30.50S VSB 1/2 WCI  21
LEXINGTON      MOCLDY    29  24  82 NE6       30.55R WCI  22
MCCOOK         CLOUDY    31  26  82 NE6       30.54R WCI  25
OGALLALA       CLOUDY    31  31  98 SE8       30.49S FOG     WCI  24
$$

NEZ005>010-023>029-035>040-094-311500-
NORTH CENTRAL NEBRASKA

CITY           SKY/WX    TMP DP  RH WIND       PRES   REMARKS
VALENTINE      PTCLDY    21  18  88 S5        30.52R WCI  15
AINSWORTH      PTCLDY    20  18  88 S3        30.52S
BROKEN BOW     CLOUDY    28  21  75 NE6       30.53S WCI  22
O`NEILL        PTCLDY    20  19  97 NW3       30.56R
ORD            MOCLDY    22  18  85 NW6       30.56R WCI  14
THEDFORD       CLOUDY    28  24  85 E5        30.51S WCI  23
$$

NEZ041-046>049-061>064-073>077-083>087-311500-
SOUTH CENTRAL NEBRASKA

CITY           SKY/WX    TMP DP  RH WIND       PRES   REMARKS
GRAND ISLAND   PTCLDY    27  19  72 N7        30.57R WCI  19
AURORA         PTCLDY    26  19  73 N9        30.56R WCI  17
HASTINGS       PTCLDY    28  18  66 N7        30.56R WCI  21
HEBRON         CLEAR     28  19  68 N9        30.56R WCI  20
HOLDREGE       CLOUDY    28  22  77 CALM      30.54S
KEARNEY *      MOCLDY    28  18  64 NE9       30.56R WCI  20
YORK           CLEAR     25  19  80 N12       30.56R WCI  14
$$

NEZ011>018-030>034-042>045-311500-
NORTHEAST NEBRASKA

CITY           SKY/WX    TMP DP  RH WIND       PRES   REMARKS
NORFOLK        PTCLDY    25  20  81 NW6       30.57R WCI  18
ALBION         PTCLDY    22  18  83 NW3       30.56S
BLAIR          SUNNY     29  21  73 N12       30.55R WCI  19
FREMONT        SUNNY     28  22  77 N6        30.58R WCI  22
TEKAMAH        SUNNY     29  20  69 N10       30.58R WCI  20
WAYNE          PTCLDY    24  20  84 N5        30.58S WCI  18
$$

NEZ050>053-065>068-078-088>093-311500-
SOUTHEAST NEBRASKA

CITY           SKY/WX    TMP DP  RH WIND       PRES   REMARKS
LINCOLN        SUNNY     28  20  71 N13       30.58R WCI  17
OMAHA EPPLEY   SUNNY     29  21  72 N15       30.57R WCI  18
BEATRICE       SUNNY     28  22  77 N8        30.55R WCI  20
FALLS CITY     SUNNY     32  20  61 N12       30.53R WCI  23
NEBRASKA CITY  SUNNY     30  19  62 N7        30.55R WCI  23
PLATTSMOUTH    SUNNY     30  18  62 N10       30.55R WCI  21
$$

NEZ044-045-051>053-067-311500-
OMAHA AREA

CITY           SKY/WX    TMP DP  RH WIND       PRES   REMARKS
OMAHA EPPLEY   SUNNY     29  21  72 N15       30.57R WCI  18
BLAIR          SUNNY     29  21  73 N12       30.55R WCI  19
FREMONT        SUNNY     28  22  77 N6        30.58R WCI  22
MILLARD        SUNNY     30  21  69 N7        30.57R WCI  23
OFFUTT AFB     SUNNY     30  20  67 N10       30.56R WCI  21
PLATTSMOUTH    SUNNY     30  18  62 N10       30.55R WCI  21
WAHOO          FAIR      28  21  76 N6        30.58R WCI  21
$$



USA.gov is the U.S. government's official web portal to all federal, state and local government web resources and services.